Overview Statistics Trail Chart Weather Telemetry Raw packets
 

This is the latest recevied weather packets stored in our database for station/object KD7DVD-1. If no packets are shown the sender has not sent any weather packets the latest 10 day(s).

<< 6 7 8 9 10 11 12 >>
Time Temp. Humidity Pressure Rain* Wind** Luminosity Snow
1788345017 14.44° C 89% 1008.4 hPa 0 mm - - -
1788343217 15° C 87% 1008.6 hPa 0 mm - - -
1788341417 15.56° C 85% 1008.6 hPa 0 mm - - -
1788339617 16.11° C 86% 1009 hPa 0 mm - - -
1788337816 15.56° C 88% 1009.3 hPa 0 mm - - -
1788336021 15.56° C 87% 1009.4 hPa 0 mm - - -
1788334216 16.11° C 86% 1009.5 hPa 0 mm - - -
1788332421 16.11° C 84% 1009.6 hPa 0 mm - - -
1788330620 15.56° C 83% 1009.8 hPa 0 mm - - -
1788328815 15.56° C 84% 1009.7 hPa 0 mm - - -
1788327017 16.11° C 84% 1010 hPa 0 mm - - -
1788325218 16.11° C 85% 1009.9 hPa 0 mm - - -
1788323417 16.67° C 84% 1009.8 hPa 0 mm - - -
1788321617 17.22° C 83% 1009.8 hPa 0 mm - - -
1788319817 17.22° C 80% 1009.6 hPa 0 mm - - -
1788318017 18.33° C 74% 1009.4 hPa 0 mm - - -
1788316217 18.89° C 74% 1009.3 hPa 0 mm - - -
1788314417 18.89° C 73% 1009.4 hPa 0 mm - - -
1788312617 19.44° C 71% 1009.3 hPa 0 mm - - -
1788310817 19.44° C 71% 1009.2 hPa 0 mm - - -
1788309038 20° C 69% 1009.3 hPa 0 mm - - -
1788307217 20.56° C 69% 1009.2 hPa 0 mm - - -
1788305416 20° C 68% 1009.3 hPa 0 mm - - -
1788303617 20.56° C 69% 1009.3 hPa 0 mm - - -
1788301816 20° C 71% 1009.4 hPa 0 mm - - -

* Rain latest hour (hover to see other rain measurements)
** Current wind speed in m/s (hover to see current wind gust speed)